^^
Saratoga-Weather Station Historical Data
Daily Summary for August 15, 2022 Units:  Metric    English   Both
Daily Weekly Monthly Yearly Custom
  High: Low: Average:
Temperature: 26.4 °C 17.3 °C 20.8 °C
Dew Point: 18.5 °C 13.5 °C 16.3 °C
Humidity: 93% 47% 77%
Wind Speed: 19.3km/h 0km/h 3.5km/h
Wind Gust: 20.9km/h - -
Wind- - WSW
Pressure: 1006.8 hPa 1004.1 hPa -
Precipitation: 4.1 mm    
Historical Graphs
 
 
Tabular Data for August 15, 2022
Time Temperature Dew Point Pressure Wind Wind Speed Wind Gust Humidity Rainfall Rate (Hourly) solar
00:00 21.6 °C 15.7 °C 1004.7 hPa NW 4.7 km/h 19.3 km/h 69% 0.0 mm 0 W/m2
00:05 21.6 °C 15.7 °C 1004.7 hPa West 14.3 km/h 14.5 km/h 69% 0.0 mm 0 W/m2
00:10 21.6 °C 15.7 °C 1004.7 hPa NW 4.7 km/h 19.3 km/h 69% 0.0 mm 0 W/m2
00:15 21.4 °C 15.7 °C 1004.7 hPa West 13 km/h 14.5 km/h 70% 0.0 mm 0 W/m2
00:20 21.4 °C 15.9 °C 1004.7 hPa West 6.4 km/h 8 km/h 71% 0.0 mm 0 W/m2
00:25 21.4 °C 15.9 °C 1004.7 hPa SW 6.4 km/h 16.1 km/h 71% 0.0 mm 0 W/m2
00:30 21.4 °C 15.9 °C 1004.7 hPa WSW 13 km/h 17.7 km/h 71% 0.0 mm 0 W/m2
00:35 21.3 °C 15.8 °C 1004.7 hPa WNW 11.1 km/h 19.3 km/h 71% 0.0 mm 0 W/m2
00:40 21.3 °C 15.8 °C 1004.7 hPa WNW 4.7 km/h 16.1 km/h 71% 0.0 mm 0 W/m2
00:45 21.3 °C 16 °C 1004.7 hPa West 16.3 km/h 19.3 km/h 72% 0.0 mm 0 W/m2
00:50 21.2 °C 15.9 °C 1004.7 hPa WNW 14.3 km/h 14.5 km/h 72% 0.0 mm 0 W/m2
00:55 21.2 °C 15.9 °C 1004.7 hPa West 4.7 km/h 17.7 km/h 72% 0.0 mm 0 W/m2
01:00 21.2 °C 15.9 °C 1004.7 hPa WNW 6.4 km/h 20.9 km/h 72% 0.0 mm 0 W/m2
01:05 21.2 °C 15.9 °C 1004.7 hPa West 3.2 km/h 11.3 km/h 72% 0.0 mm 0 W/m2
01:10 21.2 °C 16.2 °C 1004.7 hPa WSW 4.7 km/h 14.5 km/h 73% 0.0 mm 0 W/m2
01:15 21.1 °C 16.1 °C 1004.7 hPa WNW 3.2 km/h 6.4 km/h 73% 0.0 mm 0 W/m2
01:20 21.1 °C 16.3 °C 1005.1 hPa WSW 1.4 km/h 6.4 km/h 74% 0.0 mm 0 W/m2
01:25 21.1 °C 16.3 °C 1005.1 hPa NNW 3.2 km/h 6.4 km/h 74% 0.0 mm 0 W/m2
01:30 21 °C 16.2 °C 1005.1 hPa North 1.4 km/h 3.2 km/h 74% 0.0 mm 0 W/m2
01:35 20.9 °C 16.3 °C 1004.7 hPa Calm   6.4 km/h 75% 0.0 mm 0 W/m2
01:40 20.9 °C 16.3 °C 1004.7 hPa North 1.4 km/h 4.8 km/h 75% 0.0 mm 0 W/m2
01:45 20.9 °C 16.3 °C 1004.7 hPa Calm   3.2 km/h 75% 0.0 mm 0 W/m2
01:50 20.8 °C 16.4 °C 1004.7 hPa Calm   1.6 km/h 76% 0.0 mm 0 W/m2
01:55 20.8 °C 16.4 °C 1004.7 hPa Calm   3.2 km/h 76% 0.0 mm 0 W/m2
02:00 20.7 °C 16.5 °C 1004.7 hPa NE 3.2 km/h 4.8 km/h 77% 0.0 mm 0 W/m2
02:05 20.7 °C 16.5 °C 1004.7 hPa Calm   3.2 km/h 77% 0.0 mm 0 W/m2
02:10 20.6 °C 16.4 °C 1004.7 hPa NNW 1.4 km/h 3.2 km/h 77% 0.0 mm 0 W/m2
02:15 20.4 °C 16.4 °C 1004.7 hPa NNW 4.7 km/h 11.3 km/h 78% 0.0 mm 0 W/m2
02:20 20.3 °C 16.5 °C 1004.7 hPa WNW 9.7 km/h 11.3 km/h 79% 0.0 mm 0 W/m2
02:25 20.1 °C 16.5 °C 1004.7 hPa West 6.4 km/h 12.9 km/h 80% 0.0 mm 0 W/m2
02:30 19.9 °C 16.3 °C 1004.7 hPa Calm   8 km/h 80% 0.0 mm 0 W/m2
02:35 19.8 °C 16.4 °C 1004.7 hPa WNW 1.4 km/h 4.8 km/h 81% 0.0 mm 0 W/m2
02:40 19.7 °C 16.3 °C 1004.7 hPa NW 1.4 km/h 4.8 km/h 81% 0.2 mm 0 W/m2
02:45 19.6 °C 16.4 °C 1004.7 hPa WNW 4.7 km/h 6.4 km/h 82% 0.2 mm 0 W/m2
02:50 19.4 °C 16.4 °C 1005.1 hPa North 4.7 km/h 4.8 km/h 83% 0.2 mm 0 W/m2
02:55 19.2 °C 16.4 °C 1005.1 hPa Calm   4.8 km/h 84% 0.2 mm 0 W/m2
03:00 19.1 °C 16.5 °C 1005.1 hPa NW 3.2 km/h 3.2 km/h 85% 0.2 mm 0 W/m2
03:05 18.9 °C 16.3 °C 1005.1 hPa ESE 3.2 km/h 8 km/h 85% 0.5 mm 0 W/m2
03:10 18.8 °C 16.4 °C 1005.1 hPa NNW 4.7 km/h 6.4 km/h 86% 0.5 mm 0 W/m2
03:15 18.7 °C 16.3 °C 1005.1 hPa North 1.4 km/h 3.2 km/h 86% 0.5 mm 0 W/m2
03:20 18.6 °C 16.4 °C 1004.7 hPa West 4.7 km/h 9.7 km/h 87% 0.8 mm 0 W/m2
03:25 18.4 °C 16.4 °C 1005.1 hPa SW 6.4 km/h 11.3 km/h 88% 0.8 mm 0 W/m2
03:30 18.3 °C 16.3 °C 1005.1 hPa NW 4.7 km/h 9.7 km/h 88% 1.0 mm 0 W/m2
03:35 18.3 °C 16.5 °C 1005.1 hPa West 4.7 km/h 12.9 km/h 89% 1.3 mm 0 W/m2
03:40 18.2 °C 16.4 °C 1005.1 hPa WNW 3.2 km/h 9.7 km/h 89% 1.0 mm 0 W/m2
03:45 18.2 °C 16.4 °C 1005.1 hPa WSW 6.4 km/h 9.7 km/h 89% 1.0 mm 0 W/m2
03:50 18.1 °C 16.4 °C 1005.1 hPa WSW 1.4 km/h 6.4 km/h 90% 1.3 mm 0 W/m2
03:55 18.1 °C 16.4 °C 1005.1 hPa WSW 4.7 km/h 6.4 km/h 90% 1.3 mm 0 W/m2
04:00 18.1 °C 16.4 °C 1004.7 hPa North 1.4 km/h 6.4 km/h 90% 1.5 mm 0 W/m2
04:06 18.1 °C 16.4 °C 1005.1 hPa East 7.9 km/h 11.3 km/h 90% 1.3 mm 0 W/m2
04:11 18 °C 16.3 °C 1005.1 hPa WNW 9.7 km/h 9.7 km/h 90% 1.5 mm 0 W/m2
04:16 17.9 °C 16.2 °C 1004.7 hPa SW 3.2 km/h 11.3 km/h 90% 1.3 mm 0 W/m2
04:21 17.9 °C 16.4 °C 1005.1 hPa West 3.2 km/h 8 km/h 91% 1.3 mm 0 W/m2
04:26 17.9 °C 16.4 °C 1005.1 hPa West 9.7 km/h 12.9 km/h 91% 1.3 mm 0 W/m2
04:31 17.9 °C 16.4 °C 1005.1 hPa WSW 3.2 km/h 9.7 km/h 91% 1.3 mm 0 W/m2
04:36 17.9 °C 16.4 °C 1004.7 hPa WNW 1.4 km/h 3.2 km/h 91% 1.0 mm 0 W/m2
04:41 17.9 °C 16.4 °C 1005.1 hPa WSW 1.4 km/h 3.2 km/h 91% 1.3 mm 0 W/m2
04:46 17.8 °C 16.3 °C 1005.1 hPa West 3.2 km/h 4.8 km/h 91% 1.3 mm 0 W/m2
04:51 17.8 °C 16.3 °C 1005.1 hPa West 1.4 km/h 9.7 km/h 91% 1.3 mm 0 W/m2
04:56 17.8 °C 16.5 °C 1005.1 hPa Calm   6.4 km/h 92% 1.3 mm 0 W/m2
05:01 17.8 °C 16.5 °C 1005.1 hPa WSW 3.2 km/h 12.9 km/h 92% 1.3 mm 0 W/m2
05:06 17.8 °C 16.5 °C 1005.1 hPa West 1.4 km/h 8 km/h 92% 1.3 mm 0 W/m2
05:11 17.7 °C 16.4 °C 1005.1 hPa WNW 7.9 km/h 12.9 km/h 92% 1.3 mm 0 W/m2
05:16 17.7 °C 16.4 °C 1004.7 hPa WNW 4.7 km/h 12.9 km/h 92% 1.3 mm 0 W/m2
05:21 17.7 °C 16.4 °C 1004.7 hPa WSW 3.2 km/h 4.8 km/h 92% 1.3 mm 0 W/m2
05:26 17.7 °C 16.4 °C 1004.7 hPa West 1.4 km/h 12.9 km/h 92% 1.5 mm 0 W/m2
05:31 17.7 °C 16.4 °C 1004.7 hPa West 1.4 km/h 4.8 km/h 92% 1.3 mm 0 W/m2
05:36 17.7 °C 16.4 °C 1004.7 hPa WSW 7.9 km/h 8 km/h 92% 1.5 mm 0 W/m2
05:41 17.7 °C 16.4 °C 1004.7 hPa WSW 6.4 km/h 6.4 km/h 92% 1.3 mm 0 W/m2
05:46 17.7 °C 16.4 °C 1004.7 hPa West 4.7 km/h 12.9 km/h 92% 1.3 mm 0 W/m2
05:51 17.6 °C 16.5 °C 1004.7 hPa West 3.2 km/h 4.8 km/h 93% 1.0 mm 0 W/m2
05:56 17.6 °C 16.5 °C 1004.7 hPa West 3.2 km/h 12.9 km/h 93% 1.3 mm 0 W/m2
06:01 17.6 °C 16.5 °C 1004.7 hPa WSW 7.9 km/h 9.7 km/h 93% 1.0 mm 0 W/m2
06:06 17.6 °C 16.5 °C 1004.7 hPa WNW 6.4 km/h 12.9 km/h 93% 1.0 mm 0 W/m2
06:11 17.6 °C 16.5 °C 1004.7 hPa West 3.2 km/h 11.3 km/h 93% 0.8 mm 0 W/m2
06:16 17.5 °C 16.4 °C 1004.7 hPa WSW 6.4 km/h 9.7 km/h 93% 0.5 mm 0 W/m2
06:21 17.4 °C 16.3 °C 1004.7 hPa West 4.7 km/h 11.3 km/h 93% 0.5 mm 0 W/m2
06:26 17.4 °C 16.3 °C 1004.7 hPa West 6.4 km/h 6.4 km/h 93% 0.5 mm 0 W/m2
06:31 17.4 °C 16.3 °C 1004.7 hPa West 3.2 km/h 4.8 km/h 93% 0.5 mm 0 W/m2
06:36 17.4 °C 16.3 °C 1004.7 hPa West 1.4 km/h 4.8 km/h 93% 0.2 mm 0 W/m2
06:41 17.4 °C 16.3 °C 1004.7 hPa SW 6.4 km/h 9.7 km/h 93% 0.2 mm 0 W/m2
06:46 17.3 °C 16.2 °C 1004.7 hPa NW 3.2 km/h 6.4 km/h 93% 0.2 mm 7 W/m2
06:51 17.4 °C 16.3 °C 1005.1 hPa West 6.4 km/h 11.3 km/h 93% 0.5 mm 9 W/m2
06:56 17.4 °C 16.3 °C 1004.7 hPa West 1.4 km/h 9.7 km/h 93% 0.2 mm 12 W/m2
07:01 17.4 °C 16.3 °C 1004.7 hPa West 4.7 km/h 9.7 km/h 93% 0.2 mm 18 W/m2
07:06 17.4 °C 16.3 °C 1004.7 hPa WNW 1.4 km/h 3.2 km/h 93% 0.2 mm 21 W/m2
07:11 17.5 °C 16.4 °C 1004.7 hPa Calm   6.4 km/h 93% 0.2 mm 28 W/m2
07:16 17.6 °C 16.5 °C 1004.7 hPa Calm     93% 0.2 mm 32 W/m2
07:21 17.6 °C 16.5 °C 1004.7 hPa Calm   6.4 km/h 93% 0.2 mm 35 W/m2
07:26 17.6 °C 16.5 °C 1004.7 hPa Calm   1.6 km/h 93% 0.2 mm 35 W/m2
07:31 17.6 °C 16.5 °C 1004.7 hPa Calm   3.2 km/h 93% 0.2 mm 33 W/m2
07:36 17.6 °C 16.5 °C 1004.7 hPa Calm   3.2 km/h 93% 0.2 mm 33 W/m2
07:41 17.6 °C 16.5 °C 1004.7 hPa Calm   1.6 km/h 93% 0.2 mm 37 W/m2
07:46 17.6 °C 16.5 °C 1004.7 hPa West 1.4 km/h 4.8 km/h 93% 0.2 mm 42 W/m2
07:51 17.6 °C 16.5 °C 1004.7 hPa Calm   1.6 km/h 93% 0.0 mm 47 W/m2
07:56 17.6 °C 16.5 °C 1004.7 hPa Calm   1.6 km/h 93% 0.0 mm 51 W/m2
08:01 17.7 °C 16.6 °C 1004.7 hPa Calm   3.2 km/h 93% 0.0 mm 54 W/m2
08:06 17.7 °C 16.6 °C 1004.7 hPa NW 1.4 km/h 3.2 km/h 93% 0.0 mm 54 W/m2
08:11 17.8 °C 16.7 °C 1004.7 hPa NW 1.4 km/h 3.2 km/h 93% 0.0 mm 49 W/m2
08:16 17.8 °C 16.7 °C 1004.7 hPa NW 1.4 km/h 1.6 km/h 93% 0.0 mm 47 W/m2
08:21 17.8 °C 16.7 °C 1004.7 hPa Calm   1.6 km/h 93% 0.0 mm 49 W/m2
08:26 17.8 °C 16.5 °C 1004.7 hPa West 3.2 km/h 3.2 km/h 92% 0.0 mm 56 W/m2
08:31 17.8 °C 16.5 °C 1004.7 hPa Calm   3.2 km/h 92% 0.0 mm 62 W/m2
08:36 17.8 °C 16.5 °C 1004.7 hPa Calm   3.2 km/h 92% 0.0 mm 65 W/m2
08:41 17.9 °C 16.6 °C 1004.7 hPa West 3.2 km/h 3.2 km/h 92% 0.0 mm 69 W/m2
08:46 17.9 °C 16.6 °C 1004.7 hPa South 1.4 km/h 1.6 km/h 92% 0.0 mm 74 W/m2
08:51 17.9 °C 16.6 °C 1004.7 hPa West 3.2 km/h 3.2 km/h 92% 0.0 mm 84 W/m2
08:56 17.9 °C 16.6 °C 1004.7 hPa Calm   4.8 km/h 92% 0.0 mm 100 W/m2
09:01 18 °C 16.9 °C 1004.7 hPa Calm   1.6 km/h 93% 0.0 mm 109 W/m2
09:06 18.1 °C 16.9 °C 1004.7 hPa SW 3.2 km/h 4.8 km/h 93% 0.0 mm 120 W/m2
09:11 18.1 °C 16.8 °C 1004.7 hPa Calm   3.2 km/h 92% 0.0 mm 132 W/m2
09:16 18.2 °C 16.9 °C 1004.7 hPa Calm   1.6 km/h 92% 0.0 mm 139 W/m2
09:21 18.2 °C 16.9 °C 1004.7 hPa NNW 1.4 km/h 1.6 km/h 92% 0.0 mm 127 W/m2
09:26 18.2 °C 16.9 °C 1004.7 hPa West 3.2 km/h 3.2 km/h 92% 0.0 mm 120 W/m2
09:31 18.3 °C 17 °C 1004.7 hPa West 1.4 km/h 3.2 km/h 92% 0.0 mm 118 W/m2
09:36 18.3 °C 17 °C 1004.7 hPa NE 1.4 km/h 4.8 km/h 92% 0.0 mm 113 W/m2
09:41 18.3 °C 17 °C 1004.7 hPa Calm     92% 0.0 mm 109 W/m2
09:46 18.3 °C 17 °C 1004.7 hPa Calm   1.6 km/h 92% 0.0 mm 113 W/m2
09:51 18.4 °C 17.1 °C 1004.7 hPa Calm   3.2 km/h 92% 0.0 mm 116 W/m2
09:56 18.4 °C 17.1 °C 1004.7 hPa Calm   1.6 km/h 92% 0.0 mm 121 W/m2
10:01 18.5 °C 17 °C 1004.7 hPa Calm     91% 0.0 mm 134 W/m2
10:06 18.6 °C 17.1 °C 1004.7 hPa Calm   1.6 km/h 91% 0.0 mm 139 W/m2
10:11 18.7 °C 17.2 °C 1005.1 hPa Calm   3.2 km/h 91% 0.0 mm 148 W/m2
10:16 18.8 °C 17.3 °C 1005.1 hPa NNE 1.4 km/h 6.4 km/h 91% 0.0 mm 167 W/m2
10:21 18.8 °C 17.3 °C 1005.1 hPa WSW 3.2 km/h 6.4 km/h 91% 0.0 mm 197 W/m2
10:26 18.8 °C 17.3 °C 1005.1 hPa WNW 6.4 km/h 6.4 km/h 91% 0.0 mm 204 W/m2
10:31 18.8 °C 17.1 °C 1005.1 hPa WNW 4.7 km/h 9.7 km/h 90% 0.0 mm 260 W/m2
10:36 18.9 °C 17.2 °C 1005.1 hPa North 4.7 km/h 9.7 km/h 90% 0.0 mm 309 W/m2
10:41 19.1 °C 17.4 °C 1005.1 hPa North 1.4 km/h 6.4 km/h 90% 0.0 mm 302 W/m2
10:46 19.3 °C 17.4 °C 1005.1 hPa East 3.2 km/h 4.8 km/h 89% 0.0 mm 325 W/m2
10:51 19.5 °C 17.6 °C 1005.1 hPa West 6.4 km/h 11.3 km/h 89% 0.0 mm 455 W/m2
10:56 19.8 °C 17.8 °C 1005.1 hPa Calm   4.8 km/h 88% 0.0 mm 524 W/m2
11:01 19.9 °C 17.9 °C 1005.1 hPa SE 1.4 km/h 6.4 km/h 88% 0.0 mm 471 W/m2
11:06 20.3 °C 18.1 °C 1005.1 hPa WNW 3.2 km/h 4.8 km/h 87% 0.0 mm 466 W/m2
11:12 20.7 °C 18.3 °C 1005.1 hPa WNW 6.4 km/h 9.7 km/h 86% 0.0 mm 814 W/m2
11:17 20.9 °C 18.3 °C 1005.1 hPa West 13 km/h 14.5 km/h 85% 0.0 mm 308 W/m2
11:22 20.8 °C 18 °C 1005.1 hPa Calm   4.8 km/h 84% 0.0 mm 262 W/m2
11:27 21 °C 18.2 °C 1005.4 hPa WSW 1.4 km/h 6.4 km/h 84% 0.0 mm 322 W/m2
11:32 21.2 °C 18.4 °C 1005.4 hPa ENE 4.7 km/h 6.4 km/h 84% 0.0 mm 403 W/m2
11:37 21.4 °C 18.4 °C 1005.4 hPa NW 1.4 km/h 6.4 km/h 83% 0.0 mm 432 W/m2
11:42 21.6 °C 18.4 °C 1005.4 hPa NNW 4.7 km/h 6.4 km/h 82% 0.0 mm 434 W/m2
11:47 21.4 °C 18.2 °C 1005.1 hPa East 3.2 km/h 8 km/h 82% 0.0 mm 304 W/m2
11:52 21.4 °C 18.4 °C 1005.1 hPa WNW 1.4 km/h 6.4 km/h 83% 0.0 mm 775 W/m2
11:57 21.7 °C 18.5 °C 1005.1 hPa WSW 6.4 km/h 12.9 km/h 82% 0.0 mm 849 W/m2
12:02 21.8 °C 18.4 °C 1005.1 hPa West 4.7 km/h 8 km/h 81% 0.0 mm 306 W/m2
12:07 21.9 °C 18.5 °C 1005.1 hPa WSW 4.7 km/h 6.4 km/h 81% 0.0 mm 323 W/m2
12:12 22.1 °C 18.3 °C 1005.1 hPa WNW 6.4 km/h 12.9 km/h 79% 0.0 mm 257 W/m2
12:17 22.2 °C 18.4 °C 1005.1 hPa WNW 1.4 km/h 12.9 km/h 79% 0.0 mm 605 W/m2
12:22 22.3 °C 17.7 °C 1005.1 hPa NNW 1.4 km/h 9.7 km/h 75% 0.0 mm 197 W/m2
12:27 22.3 °C 17.9 °C 1005.1 hPa WNW 6.4 km/h 11.3 km/h 76% 0.0 mm 823 W/m2
12:32 22.7 °C 18 °C 1004.7 hPa WSW 6.4 km/h 9.7 km/h 75% 0.0 mm 802 W/m2
12:37 23 °C 18.1 °C 1004.7 hPa West 9.7 km/h 12.9 km/h 74% 0.0 mm 793 W/m2
12:42 23.3 °C 18 °C 1004.7 hPa SSW 4.7 km/h 11.3 km/h 72% 0.0 mm 816 W/m2
12:47 23.4 °C 17.8 °C 1004.7 hPa WNW 9.7 km/h 12.9 km/h 71% 0.0 mm 840 W/m2
12:52 23.5 °C 17.7 °C 1004.7 hPa NW 3.2 km/h 11.3 km/h 70% 0.0 mm 828 W/m2
12:57 23.7 °C 17 °C 1004.7 hPa NW 9.7 km/h 16.1 km/h 66% 0.0 mm 846 W/m2
13:02 23.7 °C 16.5 °C 1004.4 hPa WNW 11.1 km/h 16.1 km/h 64% 0.0 mm 274 W/m2
13:07 23.7 °C 16.7 °C 1004.4 hPa WNW 7.9 km/h 14.5 km/h 65% 0.0 mm 288 W/m2
13:12 23.5 °C 16.3 °C 1004.4 hPa NW 3.2 km/h 6.4 km/h 64% 0.0 mm 856 W/m2
13:17 23.8 °C 16.6 °C 1004.4 hPa WNW 4.7 km/h 14.5 km/h 64% 0.0 mm 824 W/m2
13:22 24.2 °C 16.7 °C 1004.4 hPa North 4.7 km/h 11.3 km/h 63% 0.0 mm 800 W/m2
13:27 24.4 °C 16.9 °C 1004.1 hPa West 1.4 km/h 3.2 km/h 63% 0.0 mm 800 W/m2
13:32 24.9 °C 16.9 °C 1004.1 hPa WSW 7.9 km/h 8 km/h 61% 0.0 mm 793 W/m2
13:37 25.2 °C 16.6 °C 1004.1 hPa West 6.4 km/h 11.3 km/h 59% 0.0 mm 788 W/m2
13:42 24.9 °C 16.3 °C 1004.1 hPa NW 7.9 km/h 8 km/h 59% 0.0 mm 789 W/m2
13:47 24.9 °C 16.3 °C 1004.1 hPa NW 1.4 km/h 6.4 km/h 59% 0.0 mm 791 W/m2
13:52 25.1 °C 16 °C 1004.1 hPa West 11.1 km/h 11.3 km/h 57% 0.0 mm 805 W/m2
13:57 25 °C 15 °C 1004.1 hPa NW 1.4 km/h 9.7 km/h 54% 0.0 mm 802 W/m2
14:02 25.2 °C 15.2 °C 1004.1 hPa ENE 3.2 km/h 8 km/h 54% 0.0 mm 800 W/m2
14:07 25.4 °C 15.1 °C 1004.1 hPa NW 6.4 km/h 12.9 km/h 53% 0.0 mm 802 W/m2
14:12 25.6 °C 14.7 °C 1004.1 hPa West 4.7 km/h 12.9 km/h 51% 0.0 mm 809 W/m2
14:17 25.7 °C 15.1 °C 1004.1 hPa East 13 km/h 14.5 km/h 52% 0.0 mm 807 W/m2
14:22 25.8 °C 14.3 °C 1004.1 hPa WNW 4.7 km/h 17.7 km/h 49% 0.0 mm 809 W/m2
14:27 25.6 °C 14.1 °C 1004.1 hPa SE 6.4 km/h 6.4 km/h 49% 0.0 mm 740 W/m2
14:32 25.8 °C 14.6 °C 1004.4 hPa Calm   8 km/h 50% 0.0 mm 865 W/m2
14:37 25.9 °C 14.4 °C 1004.4 hPa North 4.7 km/h 16.1 km/h 49% 0.0 mm 893 W/m2
14:42 25.7 °C 13.5 °C 1004.4 hPa SSE 6.4 km/h 11.3 km/h 47% 0.0 mm 744 W/m2
14:47 25.6 °C 13.8 °C 1004.4 hPa NW 11.1 km/h 20.9 km/h 48% 0.0 mm 977 W/m2
14:52 25.7 °C 14.5 °C 1004.7 hPa NNE 4.7 km/h 19.3 km/h 50% 0.0 mm 926 W/m2
14:57 25.7 °C 14.5 °C 1004.4 hPa West 4.7 km/h 20.9 km/h 50% 0.0 mm 937 W/m2
15:02 25.6 °C 14.1 °C 1004.4 hPa West 16.3 km/h 19.3 km/h 49% 0.0 mm 939 W/m2
15:07 25.5 °C 14.6 °C 1004.4 hPa West 3.2 km/h 4.8 km/h 51% 0.0 mm 949 W/m2
15:12 25.7 °C 14.2 °C 1004.4 hPa NNW 4.7 km/h 19.3 km/h 49% 0.0 mm 329 W/m2
15:17 25.2 °C 14 °C 1004.4 hPa West 4.7 km/h 16.1 km/h 50% 0.0 mm 334 W/m2
15:22 25 °C 14.2 °C 1004.7 hPa NNW 19.3 km/h 19.3 km/h 51% 0.0 mm 371 W/m2
15:27 24.9 °C 14.1 °C 1004.4 hPa WNW 9.7 km/h 14.5 km/h 51% 0.0 mm 882 W/m2
15:32 25.1 °C 14.8 °C 1004.4 hPa ENE 4.7 km/h 11.3 km/h 53% 0.0 mm 788 W/m2
15:37 25.4 °C 14.5 °C 1004.4 hPa NNW 3.2 km/h 20.9 km/h 51% 0.0 mm 752 W/m2
15:42 25.3 °C 13.5 °C 1004.7 hPa NW 4.7 km/h 12.9 km/h 48% 0.0 mm 731 W/m2
15:47 25.3 °C 14.1 °C 1004.4 hPa East 3.2 km/h 11.3 km/h 50% 0.0 mm 722 W/m2
15:52 25.4 °C 13.9 °C 1004.4 hPa NE 1.4 km/h 11.3 km/h 49% 0.0 mm 714 W/m2
15:57 25.5 °C 14 °C 1004.4 hPa SSE 1.4 km/h 4.8 km/h 49% 0.0 mm 705 W/m2
16:02 25.5 °C 13.7 °C 1004.4 hPa WSW 13 km/h 12.9 km/h 48% 0.0 mm 701 W/m2
16:07 25.6 °C 14.1 °C 1004.4 hPa WSW 3.2 km/h 8 km/h 49% 0.0 mm 714 W/m2
16:12 25.7 °C 14.2 °C 1004.4 hPa NW 3.2 km/h 4.8 km/h 49% 0.0 mm 700 W/m2
16:17 25.7 °C 14.2 °C 1004.4 hPa NW 3.2 km/h 6.4 km/h 49% 0.0 mm 679 W/m2
16:22 25.9 °C 14.4 °C 1004.4 hPa ENE 1.4 km/h 3.2 km/h 49% 0.0 mm 677 W/m2
16:27 26.2 °C 14.3 °C 1004.4 hPa SW 9.7 km/h 9.7 km/h 48% 0.0 mm 708 W/m2
16:32 26.4 °C 14.8 °C 1004.1 hPa ENE 4.7 km/h 6.4 km/h 49% 0.0 mm 693 W/m2
16:37 26.4 °C 14.5 °C 1004.1 hPa West 3.2 km/h 8 km/h 48% 0.0 mm 714 W/m2
16:42 26.4 °C 14.2 °C 1004.1 hPa WSW 3.2 km/h 6.4 km/h 47% 0.0 mm 468 W/m2
16:47 26.3 °C 14.1 °C 1004.1 hPa NW 4.7 km/h 4.8 km/h 47% 0.0 mm 309 W/m2
16:52 26 °C 14.1 °C 1004.1 hPa NNW 6.4 km/h 8 km/h 48% 0.0 mm 431 W/m2
16:57 25.8 °C 14.3 °C 1004.1 hPa NNE 1.4 km/h 9.7 km/h 49% 0.0 mm 204 W/m2
17:02 25.4 °C 14.2 °C 1004.1 hPa NW 1.4 km/h 3.2 km/h 50% 0.0 mm 165 W/m2
17:07 25.3 °C 14.4 °C 1004.1 hPa NW 4.7 km/h 12.9 km/h 51% 0.0 mm 130 W/m2
17:12 24.9 °C 14.7 °C 1004.4 hPa SW 11.1 km/h 14.5 km/h 53% 0.0 mm 107 W/m2
17:17 24.1 °C 15.6 °C 1004.4 hPa WSW 11.1 km/h 20.9 km/h 59% 0.0 mm 116 W/m2
17:22 23.2 °C 16 °C 1004.7 hPa NW 4.7 km/h 19.3 km/h 64% 0.0 mm 91 W/m2
17:27 22.4 °C 16 °C 1004.7 hPa NW 3.2 km/h 20.9 km/h 67% 0.0 mm 102 W/m2
17:32 22.1 °C 16.4 °C 1004.7 hPa NE 4.7 km/h 6.4 km/h 70% 0.0 mm 120 W/m2
17:37 21.8 °C 16.5 °C 1004.7 hPa WNW 13 km/h 12.9 km/h 72% 0.0 mm 118 W/m2
17:42 21.3 °C 16.5 °C 1004.7 hPa NNW 6.4 km/h 12.9 km/h 74% 0.0 mm 123 W/m2
17:47 21.1 °C 16.7 °C 1004.7 hPa WNW 16.3 km/h 17.7 km/h 76% 0.0 mm 118 W/m2
17:52 20.8 °C 16.4 °C 1004.7 hPa WNW 1.4 km/h 11.3 km/h 76% 0.0 mm 116 W/m2
17:57 20.8 °C 16.2 °C 1004.7 hPa West 3.2 km/h 17.7 km/h 75% 0.0 mm 116 W/m2
18:02 20.9 °C 16.1 °C 1004.7 hPa WNW 3.2 km/h 4.8 km/h 74% 0.0 mm 109 W/m2
18:07 21.1 °C 15.9 °C 1004.7 hPa NNW 1.4 km/h 11.3 km/h 72% 0.0 mm 125 W/m2
18:12 21.4 °C 16.1 °C 1004.7 hPa NW 1.4 km/h 6.4 km/h 72% 0.0 mm 128 W/m2
18:17 21.7 °C 15.8 °C 1004.7 hPa NW 1.4 km/h 6.4 km/h 69% 0.0 mm 139 W/m2
18:22 21.9 °C 16 °C 1004.7 hPa NW 3.2 km/h 4.8 km/h 69% 0.0 mm 120 W/m2
18:27 22 °C 15.8 °C 1004.4 hPa WNW 1.4 km/h 11.3 km/h 68% 0.0 mm 121 W/m2
18:32 22.1 °C 15.9 °C 1004.4 hPa Calm   3.2 km/h 68% 0.0 mm 411 W/m2
18:37 22.4 °C 16.2 °C 1004.4 hPa NNW 3.2 km/h 11.3 km/h 68% 0.0 mm 306 W/m2
18:42 22.4 °C 16.2 °C 1004.4 hPa Calm   3.2 km/h 68% 0.0 mm 121 W/m2
18:47 22.6 °C 16.4 °C 1004.4 hPa WNW 1.4 km/h 6.4 km/h 68% 0.0 mm 301 W/m2
18:52 22.8 °C 16.6 °C 1004.4 hPa WNW 3.2 km/h 3.2 km/h 68% 0.0 mm 292 W/m2
18:57 23 °C 16.8 °C 1004.4 hPa West 4.7 km/h 4.8 km/h 68% 0.0 mm 269 W/m2
19:02 23.2 °C 16.7 °C 1004.4 hPa NW 3.2 km/h 4.8 km/h 67% 0.0 mm 253 W/m2
19:07 23.2 °C 16.7 °C 1004.1 hPa WNW 3.2 km/h 9.7 km/h 67% 0.0 mm 225 W/m2
19:12 23.3 °C 17.1 °C 1004.1 hPa NE 3.2 km/h 6.4 km/h 68% 0.0 mm 139 W/m2
19:17 23.4 °C 16.9 °C 1004.4 hPa SSW 1.4 km/h 6.4 km/h 67% 0.0 mm 142 W/m2
19:22 23.4 °C 16.9 °C 1004.4 hPa ENE 1.4 km/h 1.6 km/h 67% 0.0 mm 49 W/m2
19:27 23.6 °C 16.9 °C 1004.4 hPa Calm   4.8 km/h 66% 0.0 mm 58 W/m2
19:32 23.6 °C 16.9 °C 1004.4 hPa West 1.4 km/h 4.8 km/h 66% 0.0 mm 63 W/m2
19:37 23.4 °C 16.7 °C 1004.4 hPa NNE 1.4 km/h 4.8 km/h 66% 0.0 mm 58 W/m2
19:42 23.4 °C 16.7 °C 1004.4 hPa Calm   3.2 km/h 66% 0.0 mm 51 W/m2
19:47 23.3 °C 16.6 °C 1004.4 hPa Calm   4.8 km/h 66% 0.0 mm 47 W/m2
19:52 23.2 °C 16.7 °C 1004.7 hPa ENE 4.7 km/h 4.8 km/h 67% 0.0 mm 42 W/m2
19:57 23.1 °C 16.4 °C 1004.7 hPa East 1.4 km/h 6.4 km/h 66% 0.0 mm 40 W/m2
20:02 22.9 °C 16.7 °C 1004.7 hPa Calm   4.8 km/h 68% 0.0 mm 32 W/m2
20:07 22.8 °C 16.4 °C 1004.7 hPa Calm   6.4 km/h 67% 0.0 mm 25 W/m2
20:12 22.7 °C 16.5 °C 1004.7 hPa East 1.4 km/h 4.8 km/h 68% 0.0 mm 18 W/m2
20:17 22.4 °C 16.4 °C 1005.1 hPa East 3.2 km/h 6.4 km/h 69% 0.0 mm 14 W/m2
20:22 22 °C 16.3 °C 1005.1 hPa ENE 1.4 km/h 3.2 km/h 70% 0.0 mm 12 W/m2
20:27 21.8 °C 16.5 °C 1005.1 hPa NW 3.2 km/h 4.8 km/h 72% 0.0 mm 9 W/m2
20:32 21.6 °C 16.6 °C 1005.1 hPa West 3.2 km/h 3.2 km/h 73% 0.0 mm 7 W/m2
20:37 21.3 °C 16.3 °C 1005.1 hPa Calm   4.8 km/h 73% 0.0 mm 5 W/m2
20:42 21.2 °C 16.4 °C 1005.4 hPa Calm   3.2 km/h 74% 0.0 mm 5 W/m2
20:47 21.1 °C 16.5 °C 1005.4 hPa North 1.4 km/h 1.6 km/h 75% 0.0 mm 0 W/m2
20:53 20.9 °C 16.3 °C 1005.4 hPa Calm   1.6 km/h 75% 0.0 mm 0 W/m2
20:58 20.8 °C 16.4 °C 1005.4 hPa Calm     76% 0.0 mm 0 W/m2
21:03 20.7 °C 16.5 °C 1005.4 hPa Calm   3.2 km/h 77% 0.0 mm 0 W/m2
21:08 20.5 °C 16.3 °C 1005.8 hPa NW 1.4 km/h 3.2 km/h 77% 0.0 mm 0 W/m2
21:13 20.4 °C 16.4 °C 1005.8 hPa Calm   1.6 km/h 78% 0.0 mm 0 W/m2
21:18 20.3 °C 16.5 °C 1005.8 hPa NNW 3.2 km/h 4.8 km/h 79% 0.0 mm 0 W/m2
21:23 20.3 °C 16.5 °C 1005.8 hPa Calm   1.6 km/h 79% 0.0 mm 0 W/m2
21:28 20.3 °C 16.5 °C 1006.1 hPa Calm   3.2 km/h 79% 0.0 mm 0 W/m2
21:33 20.2 °C 16.4 °C 1006.1 hPa Calm     79% 0.0 mm 0 W/m2
21:38 20.1 °C 16.5 °C 1006.1 hPa Calm   3.2 km/h 80% 0.0 mm 0 W/m2
21:43 20.1 °C 16.5 °C 1006.1 hPa Calm   1.6 km/h 80% 0.0 mm 0 W/m2
21:48 20 °C 16.6 °C 1006.1 hPa NW 1.4 km/h 3.2 km/h 81% 0.0 mm 0 W/m2
21:53 19.9 °C 16.7 °C 1006.1 hPa WNW 1.4 km/h 4.8 km/h 82% 0.0 mm 0 W/m2
21:58 19.9 °C 16.7 °C 1006.4 hPa Calm     82% 0.0 mm 0 W/m2
22:03 19.8 °C 16.8 °C 1006.4 hPa WNW 1.4 km/h 6.4 km/h 83% 0.0 mm 0 W/m2
22:08 19.7 °C 16.7 °C 1006.4 hPa Calm   3.2 km/h 83% 0.0 mm 0 W/m2
22:13 19.7 °C 16.7 °C 1006.4 hPa West 1.4 km/h 6.4 km/h 83% 0.0 mm 0 W/m2
22:18 19.7 °C 16.7 °C 1006.4 hPa NW 3.2 km/h 3.2 km/h 83% 0.0 mm 0 W/m2
22:23 19.6 °C 16.6 °C 1006.4 hPa WNW 3.2 km/h 3.2 km/h 83% 0.0 mm 0 W/m2
22:28 19.6 °C 16.6 °C 1006.4 hPa NW 1.4 km/h 3.2 km/h 83% 0.0 mm 0 W/m2
22:33 19.6 °C 16.6 °C 1006.4 hPa Calm   3.2 km/h 83% 0.0 mm 0 W/m2
22:38 19.5 °C 16.5 °C 1006.4 hPa Calm   4.8 km/h 83% 0.0 mm 0 W/m2
22:43 19.4 °C 16.4 °C 1006.4 hPa West 3.2 km/h 4.8 km/h 83% 0.0 mm 0 W/m2
22:48 19.4 °C 16.4 °C 1006.4 hPa West 3.2 km/h 3.2 km/h 83% 0.0 mm 0 W/m2
22:53 19.3 °C 16.5 °C 1006.8 hPa NW 3.2 km/h 4.8 km/h 84% 0.0 mm 0 W/m2
22:58 19.3 °C 16.5 °C 1006.8 hPa Calm   1.6 km/h 84% 0.0 mm 0 W/m2
23:03 19.2 °C 16.4 °C 1006.8 hPa Calm   3.2 km/h 84% 0.0 mm 0 W/m2
23:08 19.1 °C 16.3 °C 1006.8 hPa NW 1.4 km/h 1.6 km/h 84% 0.0 mm 0 W/m2
23:13 19.1 °C 16.3 °C 1006.8 hPa Calm     84% 0.0 mm 0 W/m2
23:18 18.9 °C 16.1 °C 1006.8 hPa Calm   3.2 km/h 84% 0.0 mm 0 W/m2
23:23 18.8 °C 16 °C 1006.8 hPa NNE 1.4 km/h 1.6 km/h 84% 0.0 mm 0 W/m2
23:28 18.7 °C 16.1 °C 1006.8 hPa Calm   1.6 km/h 85% 0.0 mm 0 W/m2
23:33 18.7 °C 16.1 °C 1006.8 hPa SSW 1.4 km/h 1.6 km/h 85% 0.0 mm 0 W/m2
23:38 18.6 °C 16 °C 1006.8 hPa Calm   3.2 km/h 85% 0.0 mm 0 W/m2
23:43 18.4 °C 16 °C 1006.8 hPa Calm   3.2 km/h 86% 0.0 mm 0 W/m2
23:48 18.3 °C 15.9 °C 1006.8 hPa Calm   3.2 km/h 86% 0.0 mm 0 W/m2
23:53 18.3 °C 15.9 °C 1006.8 hPa Calm   1.6 km/h 86% 0.0 mm 0 W/m2
23:58 18.2 °C 15.8 °C 1006.8 hPa Calm     86% 0.0 mm 0 W/m2
Juneau County Weather
Compliments of Weather Underground - 4 mb